Regional Weather Roundup
Issued by NWS

Home | Current Version | Previous Version | Text Only | Print | Product List | Glossary On
Versions: 1 2 3 4 5 6 7 8 9 10 11 12 13 14 15 16 17 18 19 20 21 22 23 24 25 26 27 28 29 30 31 32 33 34 35 36 37 38 39 40 41 42 43 44 45 46 47 48 49 50
000
ASUS43 KDMX 022107
RWRIA

WEATHER ROUNDUP FOR IOWA
NATIONAL WEATHER SERVICE DES MOINES IA
400 PM CDT TUE JUN 02 2015

NOTE: "FAIR" INDICATES FEW OR NO CLOUDS BELOW 12,000 FEET WITH NO
SIGNIFICANT WEATHER AND/OR OBSTRUCTIONS TO VISIBILITY.

* - THESE STATIONS ARE NOT NWS STATIONS...THUS NOT UNDER NWS
QUALITY CONTROL.  THEY ALSO DO NOT REPORT WEATHER SUCH
AS PRECIPITATION OR FOG.

IAZ001>003-012>014-020>022-031>034-043>046-022200-
   NORTHWEST IOWA

CITY           SKY/WX    TMP DP  RH WIND       PRES   REMARKS
CARROLL *      SUNNY     72  55  56 SE17      29.98F
CHEROKEE *     PTSUNNY   75  59  57 S15G23    29.92F
DENISON *      SUNNY     75  59  57 SE14      29.94F
LE MARS *      MOSUNNY   77  61  57 S18G26    29.89F
ORANGE CITY *  PTSUNNY   75  59  57 S18G25    29.90F
SHELDON *      PTSUNNY   79  57  47 S24G32    29.89F HX  80
SIOUX CITY     PTSUNNY   77  59  53 S18G26    29.90F
SPENCER        MOSUNNY   76  57  51 S22G33    29.93F
STORM LAKE *   SUNNY     75  55  50 SE26      29.94F
$$

IAZ055>058-069>071-079>083-090>094-022200-
   SOUTHWEST IOWA

CITY           SKY/WX    TMP DP  RH WIND       PRES   REMARKS
ATLANTIC *     SUNNY     73  57  56 SE16G24   29.97F
AUDUBON *      SUNNY     73  57  56 SE13G22   29.99F
CLARINDA *     MOSUNNY   70  57  64 SE10G18   30.01S
COUNCIL BLFS * SUNNY     73  63  68 SE15G25   29.95S
CRESTON *      SUNNY     70  57  64 SE14      30.02F
HARLAN  *      SUNNY     75  61  60 S14G25    29.99S
LAMONI         MOSUNNY   73  58  59 S7G20     30.03F
RED OAK *      PTSUNNY   73  59  60 SE16      29.97F
SHENANDOAH *   MOSUNNY   73  59  60 SE13G21   29.97F
$$

IAZ047>049-059>061-072>074-084-022200-
   CENTRAL IOWA

CITY           SKY/WX    TMP DP  RH WIND       PRES   REMARKS
AMES           CLOUDY    69  55  60 S14G22    30.03F
ANKENY *       CLOUDY    68  57  68 S10G17    30.03F
CHARITON *     CLOUDY    70  57  64 S10       30.04F
DES MOINES     CLOUDY    70  56  61 SE16      30.03F
GRINNELL*      PTSUNNY   70  55  60 SE14      30.05S
KNOXVILLE *    CLOUDY    70  55  60 S9        30.04S
MARSHALLTOWN   PTSUNNY   72  55  55 S15G24    30.03F
PELLA *        CLOUDY    70  59  68 S10       30.06S
PERRY *          N/A     72  54  53 S18       30.01F
$$

IAZ004>006-015-016-023>025-035-036-022200-
   NORTH CENTRAL IOWA

CITY           SKY/WX    TMP DP  RH WIND       PRES   REMARKS
ALGONA *       SUNNY     73  55  53 S21       29.97F
CLARION *      MOSUNNY   75  54  46 S18G26    30.01F
ESTHERVILLE    MOSUNNY   71  53  52 S24G31    29.95F
FORT DODGE *   MOSUNNY   72  55  56 SE10G17   30.00F
MASON CITY     SUNNY     75  54  47 S15G25    30.02F
FOREST CITY *  SUNNY     72  52  49 S18G24    29.99F
IOWA FALLS *   PTSUNNY   73  54  49 S12G21    30.03F
$$

IAZ007>011-017>019-026>030-037>042-050>054-066-022200-
   NORTHEAST IOWA

CITY           SKY/WX    TMP DP  RH WIND       PRES   REMARKS
CEDAR RAPIDS   PTSUNNY   72  52  49 SE12      30.05F
CHARLES CITY * MOSUNNY   73  52  46 S16G23    30.04F
CLINTON *      SUNNY     73  50  43 S5        30.10F
DECORAH *      SUNNY     72  50  46 S10       30.05S
DUBUQUE        MOSUNNY   71  49  45 SE7       30.07F
MONTICELLO *   SUNNY     73  48  40 SE10G17   30.06F
OELWEIN *      SUNNY     73  50  43 S9G16     30.06S
WATERLOO         N/A     74  53  48 S16       30.02F
$$

IAZ064-065-067-068-078-022200-
   EAST CENTRAL IOWA

CITY           SKY/WX    TMP DP  RH WIND       PRES   REMARKS
DAVENPORT      SUNNY     74  45  35 SE10      30.07F
IOWA CITY      PTSUNNY   74  54  49 S13       30.06F
MT. PLEASANT * CLOUDY    70  54  56 SE9       30.07F
MUSCATINE *    SUNNY     73  54  49 S8        30.05F
QUAD CITIES    SUNNY     74  48  39 S9        30.05F
$$

IAZ062-063-075>077-085>089-095>099-022200-
   SOUTHEAST IOWA

CITY           SKY/WX    TMP DP  RH WIND       PRES   REMARKS
BURLINGTON     PTSUNNY   72  55  55 S10       30.06F
FAIRFIELD *    CLOUDY    70  55  60 SE9       30.06F
FORT MADISON *   N/A     70  57  64 SE7       30.07F
KEOKUK *       PTSUNNY   70  55  60 SE7       30.05F
OSKALOOSA *    CLOUDY    70  54  56 SE12      30.06S
CENTERVILLE *  PTSUNNY   66  66 100 S9        30.07S
OTTUMWA        CLOUDY    69  56  62 S10       30.03F
WASHINGTON *   MOSUNNY   73  55  53 S14G20    30.07F
$$

ABBREVIATIONS USED IN REMARKS
   TC - TEMPERATURES IN CELSIUS
  WCI - WIND CHILL INDEX
   HX - HEAT INDEX
  VSB - VISIBILITY
$$




USA.gov is the U.S. government's official web portal to all federal, state and local government web resources and services.